Prévision chaque heure sur Domdidier


  Conditions Température Point de rosée PrécipitationProbabilité d'orage Vent Pression UV Index Couverture nuageuse Visibilité
 07:15     19:34   La longueur du jour: 12:19 Aujourd'hui
21:00 13 °
Sensation de: 7.5°
7.2°   0%
7
Max: 15 km/h
1021.0 hPa   1% 23 km
22:00 12 °
Sensation de: 5.8°
7.1°   0%
6
Max: 13 km/h
1021.0 hPa   1% 23 km
23:00 10 °
Sensation de: 4.8°
6.8°   0%
5
Max: 11 km/h
1021.0 hPa   1% 22 km
 07:17     19:32   La longueur du jour: 12:15 Demain
00:00 9 °
Sensation de: 4.0°
6.3°   0%
4
Max: 9 km/h
1021.0 hPa   1% 22 km
01:00 8 °
Sensation de: 3.7°
5.7°   0%
3
Max: 6 km/h
1021.0 hPa   1% 22 km
02:00 8 °
Sensation de: 4.3°
5.0°   0%
1
Max: 5 km/h
1021.0 hPa   1% 21 km
03:00 7 °
Sensation de: 3.4°
4.4°   0%
1
Max: 5 km/h
1021.0 hPa   1% 21 km
04:00 6 °
Sensation de: 2.7°
3.8°   0%
1
Max: 5 km/h
1021.0 hPa   1% 21 km
05:00 6 °
Sensation de: 2.8°
3.2°   0%
0
Max: 5 km/h
1020.8 hPa   1% 21 km
06:00 5 °
Sensation de: 2.2°
2.7°   0%
0
Max: 5 km/h
1020.4 hPa   3% 21 km
07:00 5 °
Sensation de: 1.6°
2.3°   0%
0
Max: 5 km/h
1020.0 hPa   6% 21 km
08:00 6 °
Sensation de: 2.4°
2.8°   0%
0
Max: 5 km/h
1020.0 hPa   9% 22 km
09:00 9 °
Sensation de: 6.2°
5.3°   0%
0
Max: 5 km/h
1020.0 hPa 9% 21 km
10:00 13 °
Sensation de: 10.8°
7.2°   0%
1
Max: 5 km/h
1020.0 hPa 10% 21 km
11:00 17 °
Sensation de: 16.0°
8.3°   0%
2
Max: 9 km/h
1019.8 hPa 12% 20 km
12:00 21 °
Sensation de: 20.1°
8.8°   0%
3
Max: 18 km/h
1019.4 hPa 25% 20 km
13:00 23 °
Sensation de: 22.6°
9.0°   0%
4
Max: 21 km/h
1018.6 hPa 38% 20 km
14:00 25 °
Sensation de: 23.7°
9.0°   0%
5
Max: 21 km/h
1018.0 hPa 53% 20 km
15:00 25 °
Sensation de: 24.1°
9.0°   <20%
5
Max: 21 km/h
1017.4 hPa 87% 20 km
16:00 25 °
Sensation de: 24.8°
9.6°   <20%
4
Max: 22 km/h
1017.0 hPa 93% 20 km
17:00 24 °
Sensation de: 24.3°
9.5°   <20%
3
Max: 18 km/h
1017.0 hPa 99% 21 km
18:00 23 °
Sensation de: 22.8°
9.5°   <20%
3
Max: 15 km/h
1017.0 hPa 99% 21 km
19:00 21 °
Sensation de: 20.8°
9.8°   0%
3
Max: 13 km/h
1017.0 hPa   98% 21 km
20:00 18 °
Sensation de: 17.2°
9.9°   0%
3
Max: 10 km/h
1017.0 hPa   99% 21 km
21:00 16 °
Sensation de: 15.0°
10.0°   0%
2
Max: 7 km/h
1017.0 hPa   99% 20 km
22:00 14 °
Sensation de: 13.4°
10.0°   0%
1
Max: 5 km/h
1017.0 hPa   100% 20 km
23:00 13 °
Sensation de: 12.1°
9.7°   0%
1
Max: 5 km/h
1017.0 hPa   100% 19 km
 07:18     19:30   La longueur du jour: 12:12 Dimanche 22 Sep
00:00 13 °
Sensation de: 11.1°
9.4°   0%
1
Max: 5 km/h
1017.0 hPa   100% 19 km
01:00 12 °
Sensation de: 10.0°
9.0°   0%
1
Max: 5 km/h
1017.0 hPa   100% 19 km
02:00 12 °
Sensation de: 8.7°
8.6°   0%
2
Max: 5 km/h
1017.0 hPa   100% 19 km
03:00 11 °
Sensation de: 8.7°
8.2°   0%
1
Max: 5 km/h
1017.0 hPa   85% 19 km
04:00 10 °
Sensation de: 7.8°
7.6°   0%
1
Max: 5 km/h
1017.0 hPa   61% 19 km
05:00 10 °
Sensation de: 6.8°
7.0°   0%
1
Max: 5 km/h
1016.6 hPa   34% 19 km
06:00 9 °
Sensation de: 6.6°
6.4°   0%
0
Max: 5 km/h
1016.2 hPa   25% 19 km
07:00 8 °
Sensation de: 6.0°
5.9°   0%
0
Max: 5 km/h
1016.0 hPa   24% 19 km
08:00 9 °
Sensation de: 6.2°
6.0°   0%
0
Max: 5 km/h
1016.0 hPa   27% 19 km
09:00 11 °
Sensation de: 9.6°
7.7°   0%
0
Max: 5 km/h
1016.0 hPa 48% 19 km
10:00 15 °
Sensation de: 14.9°
9.2°   0%
0
Max: 5 km/h
1016.0 hPa 65% 19 km
11:00 18 °
Sensation de: 18.2°
9.9°   0%
1
Max: 6 km/h
1016.0 hPa 78% 19 km
12:00 20 °
Sensation de: 21.0°
10.4°   0%
2
Max: 11 km/h
1016.0 hPa 82% 19 km
13:00 22 °
Sensation de: 23.3°
10.6°   <20%
3
Max: 16 km/h
1015.8 hPa 86% 19 km
14:00 24 °
Sensation de: 25.0°
10.8°   <20%
3
Max: 18 km/h
1015.4 hPa 90% 19 km
15:00 24 °
Sensation de: 25.0°
10.8°   20-40%
4
Max: 19 km/h
1014.6 hPa 98% 18 km
16:00 23 °
Sensation de: 24.5°
11.4° 0.3 mm 20-40%
4
Max: 17 km/h
1014.2 hPa 99% 19 km
17:00 23 °
Sensation de: 23.6°
11.5°   <20%
4
Max: 18 km/h
1014.0 hPa 100% 20 km
18:00 22 °
Sensation de: 22.3°
11.6°   <20%
4
Max: 18 km/h
1014.0 hPa   100% 14 km
19:00 18 °
Sensation de: 19.1°
13.0° 0.7 mm 0%
3
Max: 14 km/h
1014.0 hPa   100% 14 km
20:00 18 °
Sensation de: 18.0°
13.2°   0%
3
Max: 12 km/h
1014.2 hPa   100% 20 km